Photometre #845[NE_1.6_Dp] Rhyl_MO AOT

File : 20210607_845.hum

07/06/2021,05:03:14,TEMP=11.1,BA=5.56,STAT.A,ExtBa=12.70
07/06/2021,05:06:25,TEMP=11.4,BA=5.56,STAT.D,ExtBa=12.60
07/06/2021,05:08:31,TEMP=11.8,BA=5.56,STAT.A,ExtBa=12.50
07/06/2021,05:12:25,TEMP=11.7,BA=5.56,STAT.D,ExtBa=12.60
07/06/2021,05:14:27,TEMP=12.0,BA=5.56,STAT.A,ExtBa=12.50
07/06/2021,05:18:25,TEMP=11.8,BA=5.56,STAT.D,ExtBa=12.60
07/06/2021,05:20:28,TEMP=12.2,BA=5.56,STAT.A,ExtBa=12.50
07/06/2021,05:24:26,TEMP=12.2,BA=5.56,STAT.D,ExtBa=12.60
07/06/2021,05:27:25,TEMP=12.6,BA=5.56,STAT.D,ExtBa=12.50
07/06/2021,05:29:28,TEMP=13.0,BA=5.56,STAT.A,ExtBa=12.50
07/06/2021,05:33:25,TEMP=13.0,BA=5.56,STAT.D,ExtBa=12.60
07/06/2021,05:36:25,TEMP=13.3,BA=5.56,STAT.D,ExtBa=12.60
07/06/2021,05:38:28,TEMP=13.7,BA=5.56,STAT.A,ExtBa=12.50
07/06/2021,05:42:25,TEMP=13.7,BA=5.56,STAT.D,ExtBa=12.60
07/06/2021,05:45:25,TEMP=14.0,BA=5.56,STAT.D,ExtBa=12.50
07/06/2021,05:48:25,TEMP=14.0,BA=5.56,STAT.D,ExtBa=12.50
07/06/2021,05:50:27,TEMP=14.4,BA=5.56,STAT.B,ExtBa=12.50
07/06/2021,05:59:12,TEMP=14.4,BA=5.56,STAT.A,ExtBa=12.50
07/06/2021,06:02:05,TEMP=14.3,BA=5.56,STAT.A,ExtBa=12.50
07/06/2021,06:07:07,TEMP=14.0,BA=5.56,STAT.A,ExtBa=12.60
07/06/2021,06:14:44,TEMP=14.0,BA=5.60,STAT.A,ExtBa=12.60
07/06/2021,06:18:25,TEMP=14.2,BA=5.60,STAT.D,ExtBa=12.60
07/06/2021,06:21:25,TEMP=14.5,BA=5.60,STAT.D,ExtBa=12.60
07/06/2021,06:23:27,TEMP=15.0,BA=5.60,STAT.C,ExtBa=12.50
07/06/2021,06:48:12,TEMP=17.3,BA=5.60,STAT.A,ExtBa=12.50
07/06/2021,06:51:28,TEMP=17.1,BA=5.60,STAT.A,ExtBa=12.60
07/06/2021,06:54:25,TEMP=17.2,BA=5.60,STAT.D,ExtBa=12.60
07/06/2021,06:57:25,TEMP=17.2,BA=5.60,STAT.D,ExtBa=12.60
07/06/2021,06:59:27,TEMP=17.5,BA=5.60,STAT.A,ExtBa=12.50
07/06/2021,07:03:25,TEMP=17.2,BA=5.60,STAT.D,ExtBa=12.60
07/06/2021,07:06:25,TEMP=17.3,BA=5.60,STAT.D,ExtBa=12.60
07/06/2021,07:09:25,TEMP=17.3,BA=5.60,STAT.D,ExtBa=12.60
07/06/2021,07:12:25,TEMP=17.3,BA=5.60,STAT.D,ExtBa=12.60
07/06/2021,07:14:27,TEMP=17.6,BA=5.60,STAT.A,ExtBa=12.50
07/06/2021,07:18:25,TEMP=17.3,BA=5.60,STAT.D,ExtBa=12.60
07/06/2021,07:21:25,TEMP=17.4,BA=5.60,STAT.D,ExtBa=12.60
07/06/2021,07:24:25,TEMP=17.5,BA=5.60,STAT.D,ExtBa=12.60
07/06/2021,07:27:25,TEMP=17.7,BA=5.60,STAT.D,ExtBa=12.60
07/06/2021,07:30:25,TEMP=17.9,BA=5.64,STAT.D,ExtBa=12.60
07/06/2021,07:33:25,TEMP=18.0,BA=5.64,STAT.D,ExtBa=12.60
07/06/2021,07:35:27,TEMP=18.4,BA=5.64,STAT.B,ExtBa=12.60
07/06/2021,07:45:25,TEMP=18.9,BA=5.64,STAT.D,ExtBa=12.60
07/06/2021,07:48:25,TEMP=19.1,BA=5.64,STAT.D,ExtBa=12.60
07/06/2021,07:51:25,TEMP=19.2,BA=5.64,STAT.D,ExtBa=12.70
07/06/2021,07:54:25,TEMP=19.4,BA=5.64,STAT.D,ExtBa=12.70
07/06/2021,07:57:25,TEMP=19.6,BA=5.64,STAT.D,ExtBa=12.70
07/06/2021,08:00:25,TEMP=19.7,BA=5.64,STAT.D,ExtBa=12.70
07/06/2021,08:03:25,TEMP=19.8,BA=5.64,STAT.D,ExtBa=12.70
07/06/2021,08:06:25,TEMP=19.9,BA=5.64,STAT.D,ExtBa=12.70
07/06/2021,08:09:25,TEMP=19.9,BA=5.64,STAT.D,ExtBa=12.70
07/06/2021,08:14:51,TEMP=19.7,BA=5.64,STAT.B,ExtBa=12.70
07/06/2021,08:24:25,TEMP=20.0,BA=5.64,STAT.D,ExtBa=12.60
07/06/2021,08:27:25,TEMP=19.9,BA=5.64,STAT.D,ExtBa=12.70
07/06/2021,08:29:27,TEMP=20.1,BA=5.64,STAT.D,ExtBa=12.70
07/06/2021,08:33:25,TEMP=19.7,BA=5.64,STAT.D,ExtBa=12.70
07/06/2021,08:36:25,TEMP=19.6,BA=5.64,STAT.D,ExtBa=12.70
07/06/2021,08:39:25,TEMP=19.5,BA=5.64,STAT.D,ExtBa=12.60
07/06/2021,08:43:10,TEMP=19.3,BA=5.64,STAT.D,ExtBa=12.60
07/06/2021,08:54:26,TEMP=18.7,BA=5.68,STAT.D,ExtBa=12.70
07/06/2021,08:58:11,TEMP=18.8,BA=5.68,STAT.D,ExtBa=12.70
07/06/2021,09:09:26,TEMP=18.7,BA=5.68,STAT.D,ExtBa=12.80
07/06/2021,09:12:26,TEMP=19.0,BA=5.68,STAT.D,ExtBa=12.80
07/06/2021,09:14:28,TEMP=19.4,BA=5.68,STAT.F,ExtBa=12.80
07/06/2021,09:38:28,TEMP=21.2,BA=5.68,STAT.D,ExtBa=12.60
07/06/2021,09:43:11,TEMP=20.6,BA=5.68,STAT.D,ExtBa=12.70
07/06/2021,09:45:26,TEMP=20.7,BA=5.68,STAT.D,ExtBa=12.70
07/06/2021,09:48:26,TEMP=20.5,BA=5.68,STAT.D,ExtBa=12.70
07/06/2021,09:51:26,TEMP=20.4,BA=5.64,STAT.D,ExtBa=12.70
07/06/2021,09:58:11,TEMP=20.0,BA=5.64,STAT.D,ExtBa=12.80
07/06/2021,10:09:26,TEMP=19.9,BA=5.68,STAT.D,ExtBa=13.10
07/06/2021,10:12:26,TEMP=20.1,BA=5.68,STAT.D,ExtBa=13.00
07/06/2021,10:14:29,TEMP=20.5,BA=5.68,STAT.F,ExtBa=13.00
07/06/2021,10:30:16,TEMP=20.9,BA=5.68,STAT.D,ExtBa=12.70
07/06/2021,10:33:26,TEMP=20.6,BA=5.68,STAT.D,ExtBa=13.00
07/06/2021,10:36:26,TEMP=20.7,BA=5.68,STAT.D,ExtBa=13.20
07/06/2021,10:39:26,TEMP=20.9,BA=5.68,STAT.D,ExtBa=13.30
07/06/2021,10:42:26,TEMP=21.2,BA=5.68,STAT.D,ExtBa=13.30
07/06/2021,10:44:32,TEMP=21.5,BA=5.68,STAT.D,ExtBa=13.30
07/06/2021,10:48:26,TEMP=21.4,BA=5.68,STAT.D,ExtBa=13.30
07/06/2021,10:51:26,TEMP=21.7,BA=5.68,STAT.D,ExtBa=13.40
07/06/2021,10:54:26,TEMP=21.8,BA=5.68,STAT.D,ExtBa=13.40
07/06/2021,10:57:26,TEMP=22.0,BA=5.68,STAT.D,ExtBa=13.40
07/06/2021,10:59:29,TEMP=22.5,BA=5.68,STAT.D,ExtBa=13.40
07/06/2021,11:03:26,TEMP=22.5,BA=5.68,STAT.D,ExtBa=13.40
07/06/2021,11:06:26,TEMP=22.7,BA=5.68,STAT.D,ExtBa=13.50
07/06/2021,11:09:26,TEMP=22.9,BA=5.68,STAT.D,ExtBa=13.50
07/06/2021,11:12:26,TEMP=23.0,BA=5.68,STAT.D,ExtBa=13.40
07/06/2021,11:14:28,TEMP=23.3,BA=5.68,STAT.F,ExtBa=13.40
07/06/2021,11:30:37,TEMP=23.4,BA=5.68,STAT.D,ExtBa=13.00
07/06/2021,11:36:26,TEMP=22.9,BA=5.68,STAT.D,ExtBa=13.20
07/06/2021,11:39:26,TEMP=22.9,BA=5.68,STAT.D,ExtBa=13.20
07/06/2021,11:42:26,TEMP=22.8,BA=5.68,STAT.D,ExtBa=13.30
07/06/2021,11:44:27,TEMP=23.0,BA=5.68,STAT.D,ExtBa=13.20
07/06/2021,11:48:26,TEMP=22.6,BA=5.68,STAT.D,ExtBa=13.20
07/06/2021,11:51:26,TEMP=22.7,BA=5.68,STAT.D,ExtBa=13.20
07/06/2021,11:54:26,TEMP=22.7,BA=5.68,STAT.D,ExtBa=13.20
07/06/2021,11:57:26,TEMP=22.7,BA=5.68,STAT.D,ExtBa=13.20
07/06/2021,11:59:26,TEMP=22.9,BA=5.68,STAT.D,ExtBa=13.20
07/06/2021,12:03:26,TEMP=22.4,BA=5.68,STAT.D,ExtBa=13.30
07/06/2021,12:06:26,TEMP=22.4,BA=5.68,STAT.D,ExtBa=13.30
07/06/2021,12:09:26,TEMP=22.5,BA=5.68,STAT.D,ExtBa=13.30
07/06/2021,12:12:26,TEMP=22.6,BA=5.68,STAT.D,ExtBa=13.50
07/06/2021,12:14:57,TEMP=23.0,BA=5.68,STAT.F,ExtBa=13.40
07/06/2021,12:31:12,TEMP=23.4,BA=5.68,STAT.D,ExtBa=13.20
07/06/2021,12:36:26,TEMP=23.2,BA=5.68,STAT.D,ExtBa=13.50
07/06/2021,12:39:26,TEMP=23.4,BA=5.68,STAT.D,ExtBa=13.50
07/06/2021,12:42:26,TEMP=23.4,BA=5.68,STAT.D,ExtBa=13.50
07/06/2021,12:44:36,TEMP=23.7,BA=5.68,STAT.D,ExtBa=13.50
07/06/2021,12:48:26,TEMP=23.6,BA=5.68,STAT.D,ExtBa=13.60
07/06/2021,12:51:26,TEMP=23.8,BA=5.68,STAT.D,ExtBa=13.60
07/06/2021,12:54:26,TEMP=23.8,BA=5.68,STAT.D,ExtBa=13.50
07/06/2021,12:57:26,TEMP=23.7,BA=5.68,STAT.D,ExtBa=13.50
07/06/2021,12:59:27,TEMP=23.7,BA=5.68,STAT.D,ExtBa=13.60
07/06/2021,13:03:26,TEMP=23.3,BA=5.68,STAT.D,ExtBa=13.60
07/06/2021,13:06:26,TEMP=23.6,BA=5.68,STAT.D,ExtBa=13.60
07/06/2021,13:09:26,TEMP=23.7,BA=5.68,STAT.D,ExtBa=13.60
07/06/2021,13:12:26,TEMP=23.8,BA=5.68,STAT.D,ExtBa=13.60
07/06/2021,13:14:28,TEMP=24.1,BA=5.68,STAT.F,ExtBa=13.50
07/06/2021,13:31:23,TEMP=24.0,BA=5.64,STAT.D,ExtBa=13.10
07/06/2021,13:36:26,TEMP=22.8,BA=5.64,STAT.D,ExtBa=13.30
07/06/2021,13:39:26,TEMP=22.5,BA=5.64,STAT.D,ExtBa=13.30
07/06/2021,13:42:26,TEMP=22.2,BA=5.64,STAT.D,ExtBa=13.30
07/06/2021,13:44:30,TEMP=22.4,BA=5.64,STAT.D,ExtBa=13.30
07/06/2021,13:48:26,TEMP=22.0,BA=5.64,STAT.D,ExtBa=13.30
07/06/2021,13:51:26,TEMP=21.9,BA=5.64,STAT.D,ExtBa=13.20
07/06/2021,13:58:11,TEMP=21.3,BA=5.64,STAT.D,ExtBa=13.40
07/06/2021,14:00:26,TEMP=21.5,BA=5.68,STAT.D,ExtBa=13.40
07/06/2021,14:03:26,TEMP=21.4,BA=5.68,STAT.D,ExtBa=13.50
07/06/2021,14:06:26,TEMP=21.4,BA=5.68,STAT.D,ExtBa=13.60
07/06/2021,14:09:26,TEMP=21.5,BA=5.68,STAT.D,ExtBa=13.60
07/06/2021,14:12:26,TEMP=21.6,BA=5.64,STAT.D,ExtBa=13.60
07/06/2021,14:14:28,TEMP=21.9,BA=5.64,STAT.F,ExtBa=13.60
07/06/2021,14:31:29,TEMP=22.6,BA=5.64,STAT.D,ExtBa=13.20
07/06/2021,14:36:26,TEMP=22.0,BA=5.64,STAT.D,ExtBa=13.40
07/06/2021,14:39:26,TEMP=21.9,BA=5.64,STAT.D,ExtBa=13.40
07/06/2021,14:42:26,TEMP=21.7,BA=5.64,STAT.D,ExtBa=13.40
07/06/2021,14:44:27,TEMP=21.8,BA=5.64,STAT.D,ExtBa=13.40
07/06/2021,14:48:26,TEMP=21.4,BA=5.64,STAT.D,ExtBa=13.40
07/06/2021,14:51:26,TEMP=21.4,BA=5.64,STAT.D,ExtBa=13.30
07/06/2021,14:54:26,TEMP=21.4,BA=5.64,STAT.D,ExtBa=13.30
07/06/2021,14:57:26,TEMP=21.4,BA=5.64,STAT.D,ExtBa=13.40
07/06/2021,14:59:27,TEMP=21.6,BA=5.64,STAT.D,ExtBa=13.40
07/06/2021,15:03:26,TEMP=21.2,BA=5.64,STAT.D,ExtBa=13.40
07/06/2021,15:06:26,TEMP=21.2,BA=5.64,STAT.D,ExtBa=13.40
07/06/2021,15:09:26,TEMP=21.2,BA=5.64,STAT.D,ExtBa=13.40
07/06/2021,15:12:26,TEMP=21.2,BA=5.64,STAT.D,ExtBa=13.40
07/06/2021,15:14:29,TEMP=21.4,BA=5.64,STAT.F,ExtBa=13.40
07/06/2021,15:39:55,TEMP=21.8,BA=5.64,STAT.D,ExtBa=12.90
07/06/2021,15:43:16,TEMP=21.3,BA=5.64,STAT.D,ExtBa=13.00
07/06/2021,15:48:25,TEMP=21.0,BA=5.64,STAT.D,ExtBa=13.20
07/06/2021,15:51:25,TEMP=21.1,BA=5.64,STAT.D,ExtBa=13.20
07/06/2021,15:54:25,TEMP=21.0,BA=5.64,STAT.D,ExtBa=13.10
07/06/2021,15:57:25,TEMP=20.9,BA=5.64,STAT.D,ExtBa=13.10
07/06/2021,15:59:27,TEMP=21.0,BA=5.64,STAT.D,ExtBa=13.00
07/06/2021,16:11:33,TEMP=19.9,BA=5.64,STAT.B,ExtBa=13.00
07/06/2021,16:21:25,TEMP=19.9,BA=5.64,STAT.D,ExtBa=12.80
07/06/2021,16:24:25,TEMP=19.9,BA=5.64,STAT.D,ExtBa=12.80
07/06/2021,16:27:25,TEMP=19.8,BA=5.64,STAT.D,ExtBa=12.80
07/06/2021,16:30:25,TEMP=19.7,BA=5.64,STAT.D,ExtBa=12.80
07/06/2021,16:33:25,TEMP=19.7,BA=5.64,STAT.D,ExtBa=12.90
07/06/2021,16:36:25,TEMP=19.6,BA=5.64,STAT.D,ExtBa=12.90
07/06/2021,16:39:25,TEMP=19.6,BA=5.64,STAT.D,ExtBa=12.80
07/06/2021,16:51:25,TEMP=18.7,BA=5.64,STAT.D,ExtBa=12.90
07/06/2021,16:53:27,TEMP=19.1,BA=5.64,STAT.B,ExtBa=12.90
07/06/2021,17:06:25,TEMP=18.2,BA=5.68,STAT.D,ExtBa=12.90
07/06/2021,17:11:56,TEMP=18.2,BA=5.68,STAT.A,ExtBa=12.90
07/06/2021,17:15:25,TEMP=18.4,BA=5.68,STAT.D,ExtBa=12.90
07/06/2021,17:18:25,TEMP=18.7,BA=5.68,STAT.D,ExtBa=12.90
07/06/2021,17:21:25,TEMP=19.1,BA=5.64,STAT.D,ExtBa=12.90
07/06/2021,17:24:25,TEMP=19.3,BA=5.64,STAT.D,ExtBa=12.90
07/06/2021,17:27:25,TEMP=19.6,BA=5.64,STAT.D,ExtBa=12.90
07/06/2021,17:29:27,TEMP=19.9,BA=5.64,STAT.A,ExtBa=12.80
07/06/2021,17:41:36,TEMP=18.6,BA=5.68,STAT.A,ExtBa=12.90
07/06/2021,17:45:25,TEMP=18.8,BA=5.68,STAT.D,ExtBa=12.80
07/06/2021,17:48:25,TEMP=18.9,BA=5.68,STAT.D,ExtBa=12.80
07/06/2021,17:51:25,TEMP=19.0,BA=5.64,STAT.D,ExtBa=12.70
07/06/2021,17:53:28,TEMP=19.3,BA=5.64,STAT.A,ExtBa=12.70
07/06/2021,17:57:25,TEMP=18.9,BA=5.64,STAT.D,ExtBa=12.70
07/06/2021,18:00:25,TEMP=19.0,BA=5.68,STAT.D,ExtBa=12.70
07/06/2021,18:02:59,TEMP=19.1,BA=5.68,STAT.C,ExtBa=12.70
07/06/2021,18:29:16,TEMP=18.2,BA=5.64,STAT.A,ExtBa=12.60
07/06/2021,18:32:39,TEMP=17.9,BA=5.64,STAT.A,ExtBa=12.70
07/06/2021,18:34:52,TEMP=18.1,BA=5.64,STAT.A,ExtBa=12.70
07/06/2021,18:37:03,TEMP=18.0,BA=5.64,STAT.A,ExtBa=12.70
07/06/2021,18:39:14,TEMP=18.0,BA=5.64,STAT.B,ExtBa=12.70
07/06/2021,18:48:25,TEMP=17.5,BA=5.60,STAT.D,ExtBa=12.60
07/06/2021,18:50:27,TEMP=17.3,BA=5.60,STAT.A,ExtBa=12.60
07/06/2021,18:58:37,TEMP=16.0,BA=5.60,STAT.A,ExtBa=12.70
07/06/2021,19:03:25,TEMP=16.1,BA=5.60,STAT.D,ExtBa=12.70
07/06/2021,19:06:21,TEMP=16.3,BA=5.60,STAT.A,ExtBa=12.60
07/06/2021,19:09:25,TEMP=16.4,BA=5.60,STAT.D,ExtBa=12.60
07/06/2021,19:12:25,TEMP=16.5,BA=5.60,STAT.D,ExtBa=12.60
07/06/2021,19:14:31,TEMP=16.8,BA=5.60,STAT.A,ExtBa=12.60
07/06/2021,19:18:22,TEMP=16.5,BA=5.60,STAT.A,ExtBa=12.60
07/06/2021,19:21:25,TEMP=16.5,BA=5.56,STAT.D,ExtBa=12.60
07/06/2021,19:23:27,TEMP=16.8,BA=5.56,STAT.A,ExtBa=12.60